Home   Weather   Bo   Past weeks

Flag for Sierra Leone Past Weather in Bo, Sierra Leone — Yesterday and Last 2 Weeks

Now
88 °F

Partly sunny.


Feels Like: 102 °F
Forecast: 72 / 91 °F
Wind: 10 mph from Northwest

Location: Lungi

Current Time: Dec 8, 2016 at 2:11:46 pm

Latest Report: Dec 8, 2016 at 1:00 pm


Visibility: N/A

Pressure: 29.83 "Hg

Humidity: 75%

Dew Point: 79 °F

Location of BoLocation

Past Weather in Bo — Graph

°F

Bo Temperature Yesterday

Maximum temperature yesterday: 91 °F (at 3:00 pm)
Minimum temperature yesterday: 79 °F (at 3:00 am)
Average temperature yesterday: 85 °F

High & Low Weather Summary for the Past Weeks

 TemperatureHumidityPressure
High102 °F (Dec 1, 6:00 pm)94% (Nov 27, 7:00 am)29.92 "Hg (Nov 27, 7:00 am)
Low75 °F (Nov 29, 9:00 am)45% (Dec 1, 6:00 pm)29.74 "Hg (Nov 25, 5:00 pm)
Average84 °F78%29.84 "Hg
* Reported Nov 23 3:00 pm — Dec 8 12:00 pm, Bo, Weather by CustomWeather, © 2016

Note: Actual official high and low records may vary slightly from our data, if they occured in-between our weather recording intervals... More about our weather records

Advertising

Bo Weather History for the Previous 24 Hours

Scroll right to see more
 ConditionsComfort  
Time TempWeatherWind HumidityBarometerVisibility
12:00 pm
Thu, Dec 8
86 °FPartly sunny.9 mph75%29.86 "HgN/A
11:00 am84 °FPartly sunny.7 mph84%29.89 "HgN/A
10:00 am82 °FFog.7 mph84%29.89 "Hg3 mi
9:00 am82 °FFog.8 mph84%29.89 "Hg3 mi
7:00 am79 °FFog.7 mph89%29.83 "Hg5 mi
6:00 am79 °FFog.7 mph89%29.83 "Hg5 mi
5:00 am81 °FPassing clouds.7 mph89%29.80 "HgN/A
4:00 am81 °FPassing clouds.7 mph89%29.80 "HgN/A
3:00 am81 °FPassing clouds.7 mph89%29.83 "HgN/A
2:00 am81 °FPassing clouds.7 mph89%29.83 "HgN/A
1:00 am81 °FPassing clouds.7 mph89%29.86 "HgN/A
12:00 am81 °FPassing clouds.7 mph89%29.86 "HgN/A
11:00 pm
Wed, Dec 7
81 °FPassing clouds.7 mph89%29.86 "HgN/A
10:00 pm81 °FPassing clouds.7 mph89%29.86 "HgN/A
9:00 pm82 °FPassing clouds.7 mph84%29.86 "HgN/A
8:00 pm82 °FPassing clouds.7 mph84%29.83 "HgN/A
7:00 pm84 °FPassing clouds.9 mph79%29.80 "HgN/A
6:00 pm86 °FScattered clouds.8 mph79%29.80 "HgN/A
5:00 pm90 °FScattered clouds.8 mph67%29.77 "HgN/A
4:00 pm91 °FScattered clouds.12 mph63%29.77 "HgN/A
3:00 pm91 °FScattered clouds.10 mph63%29.80 "HgN/A
Weather by CustomWeather, © 2016

See weather overviewHow to use our weather pages